Starlink 31809

operational
NORAD ID: 59743 Int'l Des: 2024-090 Owner: SPXS Country: US Constellation: starlink
LEOCIRCULAR

Starlink 31809について

説明を読み込み中...

リアルタイム位置

3D地球を読み込み中...

次回通過

高度履歴

Altitude vs Time

uPlot chart will show altitude changes over time

軌道要素

1 59743U 24090P 25308.62265742 -.00000655 00000-0 -14264-4 0 9994
2 59743 42.9993 162.8084 0001250 264.0771 95.9938 15.27585328 84393
Epoch: Nov 4, 2025 • Age: 7 hours

現在のステータス

高度 495.3 km
速度 7.62 km/s
衛星直下点 -42.68°S, 40.7°E
打ち上げ日 May 13, 2024
運用期間 1.4 years
タイプ internet

技術仕様

分類 Payload
質量 730.00 kg
乾燥質量 700.00 kg
総質量 730.00 kg
長さ 0.30 m
直径 4.10 m
スパン 29.00 m
形状 Box + pan
製造者 SPXS
バスタイプ Starlink V2M
フェーズステータス In Orbit
所有者/国 SPXS/US

大規模コンステレーション

Loading constellations...